星链-1192 (STARLINK-1192 )

导读 | 豆包AI

STARLINK-1192是美国太空探索技术公司星链(Starlink)星座中的一颗卫星,于2020年2月17日发射。它属于星链计划的早期组网卫星,旨在为全球提供低延迟、高速率的卫星互联网服务,尤其覆盖偏远地区。星链通过低轨卫星星座构建天基通信网络,这颗卫星是其大规模部署中的一环,助力实现全球网络覆盖目标,目前已在轨运行多年,支撑星座服务能力的搭建。

基本信息
目录编号:
45180
目录名称:
STARLINK-1192
国际标识:
2020-012C
轨道中心:
EARTH
卫星名称:
星链-1192
卫星全名:
星链-1192 (STARLINK-1192 )
卫星状态:
已陨落 最后检测时间 2023-10-06
发射日期:
2020-02-17 UTC
国别 :
美国 (US)
星等 :
--
轨道信息
数据来源 国际轨道数据
星历时间: 2023-10-06T18:03:14+0800
轨道信息已过期890天
半长轴: 6549.158km
偏心率: 0.0026615
轨道倾角: 52.973°
近地点辐角 31.290°
升交点赤经 352.659°
平近点角 36.884°
近地点: 153.592km
远地点: 188.454km
周期: 87.910分钟
每日圈数: 16.380403
详细信息
固有亮度:
5
最大亮度:
2.5
卫星平台:
Starlink V1.0
覆盖范围:
全球
运营商:
太空探索技术公司
运营商所在国:
美国
制造商(研发单位):
太空探索技术公司
制造商所在国:
美国
使用方式:
暂无
卫星简介
星链(Starlink)计划是由太空探索技术公司(SpaceX)提出的一个巨型低轨卫星互联网星座项目,计划在2019年至2024年间在太空搭建由约1.2万颗卫星组成的“星链”网络,其中1584颗将部署在地球上空550千米处的近地轨道,并从2020年开始工作。该卫星已陨落。